Location: Newark
(21.1200°N, 73.4000°E)
Time: 00:17:26
(UTC+00:00)

Vanguard 2 Rocket - Pass Details

Date: 21 January 2020
Orbit: 553 x 3327 km, 32.9° (Epoch: 24 February)

Event Time Altitude Azimuth Distance (km) Brightness Sun altitude
Exits shadow 23:49:33 49° 26° (NNE) 899 6.8 -26.8°
Drops below altitude 10° 23:54:10 10° 58° (ENE) 2,583 9.8 -25.8°
Sets 23:57:28 0° 62° (ENE) 3,901 10.9 -25.0°
